TAP1922 LPPT-LPPR

Flight info

Callsign TAP1922
Flight time 0h 30m
Altitude 22000
Route IXIDA DCT ABLEG
Aircraft A20N/M-SDE2E3FGHIRWXY/LB1

Departure

Time 2026-05-07 20:46
Airport Lisbon Humberto Delgado Airport (LPPT)

Arrival

Time 2026-05-07 21:16
Airport Francisco de Sá Carneiro Airport (LPPR)
Time Latitude Longitude Altitude Speed Heading
2026-05-07 20:06 38.77160 -9.13124 335 ft 0 kts 79°
2026-05-07 20:36 38.77160 -9.13125 337 ft 0 kts 79°
2026-05-07 20:38 38.77158 -9.13136 332 ft 3 kts 76°
2026-05-07 20:38 38.77153 -9.13161 333 ft 3 kts 65°
2026-05-07 20:39 38.77143 -9.13183 333 ft 3 kts 50°
2026-05-07 20:39 38.77129 -9.13200 332 ft 3 kts 20°
2026-05-07 20:39 38.77119 -9.13204 333 ft 2 kts 352°
2026-05-07 20:39 38.77116 -9.13203 334 ft 0 kts 348°
2026-05-07 20:42 38.77129 -9.13207 333 ft 5 kts 348°
2026-05-07 20:42 38.77185 -9.13222 335 ft 12 kts 348°
2026-05-07 20:42 38.77280 -9.13248 338 ft 16 kts 347°
2026-05-07 20:42 38.77319 -9.13359 338 ft 15 kts 258°
2026-05-07 20:43 38.77298 -9.13487 346 ft 14 kts 258°
2026-05-07 20:43 38.77278 -9.13605 349 ft 13 kts 258°
2026-05-07 20:43 38.77260 -9.13722 359 ft 14 kts 258°
2026-05-07 20:43 38.77236 -9.13832 353 ft 12 kts 238°
2026-05-07 20:44 38.77161 -9.13884 357 ft 15 kts 200°
2026-05-07 20:44 38.77119 -9.13975 355 ft 12 kts 285°
2026-05-07 20:44 38.77134 -9.14020 357 ft 5 kts 295°
2026-05-07 20:44 38.77157 -9.14077 361 ft 10 kts 306°
2026-05-07 20:45 38.77202 -9.14090 359 ft 4 kts 22°
2026-05-07 20:45 38.77266 -9.14056 363 ft 25 kts 22°
2026-05-07 20:45 38.77650 -9.13852 367 ft 93 kts 22°
2026-05-07 20:45 38.78416 -9.13441 364 ft 142 kts 23°
2026-05-07 20:46 38.79350 -9.12884 803 ft 144 kts 22°
2026-05-07 20:46 38.80294 -9.12329 1262 ft 153 kts 20°
2026-05-07 20:46 38.81254 -9.11755 1838 ft 152 kts 22°
2026-05-07 20:46 38.82210 -9.11120 2281 ft 162 kts 25°
2026-05-07 20:47 38.83253 -9.10380 2536 ft 181 kts 26°
2026-05-07 20:47 38.84405 -9.09512 2795 ft 205 kts 28°
2026-05-07 20:47 38.85713 -9.08516 3182 ft 231 kts 28°
2026-05-07 20:47 38.87175 -9.07426 3776 ft 255 kts 23°
2026-05-07 20:48 38.88907 -9.06721 4611 ft 266 kts 13°
2026-05-07 20:48 38.90722 -9.06110 5584 ft 274 kts 13°
2026-05-07 20:48 38.92606 -9.05486 6535 ft 284 kts 13°
2026-05-07 20:48 38.94544 -9.04848 7464 ft 292 kts 14°
2026-05-07 20:49 38.96532 -9.04183 8465 ft 298 kts 14°
2026-05-07 20:49 38.98564 -9.03497 9425 ft 305 kts 15°
2026-05-07 20:49 39.00614 -9.02802 10334 ft 314 kts 15°
2026-05-07 20:49 39.02807 -9.02058 10783 ft 338 kts 15°
2026-05-07 20:50 39.05160 -9.01258 11215 ft 360 kts 15°
2026-05-07 20:50 39.07589 -9.00350 12003 ft 367 kts 24°
2026-05-07 20:50 39.09747 -8.98619 12882 ft 368 kts 45°
2026-05-07 20:50 39.11314 -8.96048 13780 ft 365 kts 66°
2026-05-07 20:51 39.12104 -8.92972 14528 ft 362 kts 86°
2026-05-07 20:51 39.12277 -8.89729 15251 ft 365 kts 93°
2026-05-07 20:51 39.12279 -8.86436 15994 ft 370 kts 95°
2026-05-07 20:51 39.12283 -8.83095 16720 ft 379 kts 89°
2026-05-07 20:52 39.12905 -8.79750 17444 ft 392 kts 70°
2026-05-07 20:52 39.14318 -8.76699 18172 ft 403 kts 54°
2026-05-07 20:52 39.16166 -8.73942 18809 ft 409 kts 49°
2026-05-07 20:52 39.18127 -8.71256 19468 ft 413 kts 49°
2026-05-07 20:53 39.20103 -8.68539 20105 ft 418 kts 49°
2026-05-07 20:53 39.22074 -8.65761 20738 ft 422 kts 50°
2026-05-07 20:53 39.24044 -8.62926 21368 ft 426 kts 50°
2026-05-07 20:53 39.26024 -8.60045 21787 ft 431 kts 50°
2026-05-07 20:54 39.28023 -8.57158 21918 ft 432 kts 46°
2026-05-07 20:54 39.30377 -8.54742 21950 ft 434 kts 31°
2026-05-07 20:54 39.33134 -8.53177 21948 ft 433 kts 15°
2026-05-07 20:54 39.36095 -8.52563 21948 ft 432 kts
2026-05-07 20:55 39.39097 -8.52369 21944 ft 432 kts
2026-05-07 20:55 39.42094 -8.52212 21944 ft 431 kts
2026-05-07 20:55 39.45091 -8.52045 21945 ft 431 kts
2026-05-07 20:55 39.48091 -8.51860 21947 ft 431 kts
2026-05-07 20:56 39.51090 -8.51662 21945 ft 431 kts
2026-05-07 20:56 39.54087 -8.51457 21946 ft 431 kts
2026-05-07 20:56 39.57085 -8.51249 21945 ft 432 kts
2026-05-07 20:56 39.60085 -8.51040 21942 ft 432 kts
2026-05-07 20:57 39.63081 -8.50832 21941 ft 432 kts
2026-05-07 20:57 39.66081 -8.50623 21941 ft 432 kts
2026-05-07 20:57 39.69086 -8.50414 21942 ft 432 kts
2026-05-07 20:57 39.72084 -8.50204 21943 ft 432 kts
2026-05-07 20:58 39.75081 -8.49995 21943 ft 432 kts
2026-05-07 20:58 39.78084 -8.49785 21943 ft 432 kts
2026-05-07 20:58 39.81082 -8.49576 21942 ft 432 kts
2026-05-07 20:58 39.84084 -8.49365 21942 ft 432 kts
2026-05-07 20:59 39.87083 -8.49155 21940 ft 432 kts
2026-05-07 20:59 39.90085 -8.48944 21943 ft 432 kts
2026-05-07 20:59 39.93081 -8.48733 21942 ft 431 kts
2026-05-07 20:59 39.96080 -8.48523 21943 ft 431 kts
2026-05-07 21:00 39.99074 -8.48313 21945 ft 431 kts
2026-05-07 21:00 40.02068 -8.48102 21944 ft 431 kts
2026-05-07 21:00 40.05061 -8.47892 21865 ft 431 kts
2026-05-07 21:00 40.08056 -8.47681 21426 ft 432 kts
2026-05-07 21:01 40.11057 -8.47472 20819 ft 432 kts
2026-05-07 21:01 40.14050 -8.47261 20238 ft 429 kts
2026-05-07 21:01 40.17016 -8.47056 19716 ft 423 kts
2026-05-07 21:01 40.19927 -8.46850 19254 ft 416 kts
2026-05-07 21:02 40.22810 -8.46647 18645 ft 414 kts
2026-05-07 21:02 40.25665 -8.46443 18048 ft 410 kts
2026-05-07 21:02 40.28505 -8.46231 17478 ft 405 kts
2026-05-07 21:02 40.31302 -8.46031 16925 ft 400 kts
2026-05-07 21:03 40.34064 -8.45831 16363 ft 395 kts
2026-05-07 21:03 40.36798 -8.45645 15806 ft 392 kts
2026-05-07 21:03 40.39469 -8.45462 15267 ft 388 kts
2026-05-07 21:03 40.42153 -8.45276 14722 ft 385 kts
2026-05-07 21:04 40.44818 -8.45089 14181 ft 382 kts
2026-05-07 21:04 40.47464 -8.44902 13594 ft 380 kts
2026-05-07 21:04 40.50090 -8.44715 13076 ft 376 kts
2026-05-07 21:04 40.52686 -8.44530 12552 ft 371 kts
2026-05-07 21:05 40.55288 -8.44345 12023 ft 368 kts
2026-05-07 21:05 40.57801 -8.44165 11516 ft 365 kts
2026-05-07 21:05 40.60321 -8.43984 11107 ft 360 kts
2026-05-07 21:05 40.62837 -8.43803 10969 ft 365 kts
2026-05-07 21:06 40.65370 -8.43621 10937 ft 364 kts
2026-05-07 21:06 40.67896 -8.43439 10933 ft 364 kts
2026-05-07 21:06 40.70428 -8.43257 10936 ft 364 kts
2026-05-07 21:06 40.72937 -8.43578 10931 ft 364 kts 343°
2026-05-07 21:07 40.75229 -8.44925 10770 ft 359 kts 329°
2026-05-07 21:07 40.77405 -8.46522 10369 ft 357 kts 329°
2026-05-07 21:07 40.79584 -8.48101 9856 ft 356 kts 329°
2026-05-07 21:07 40.81729 -8.49620 9540 ft 341 kts 330°
2026-05-07 21:08 40.83770 -8.51042 9334 ft 321 kts 330°
2026-05-07 21:08 40.85700 -8.52378 9025 ft 308 kts 330°
2026-05-07 21:08 40.87584 -8.53681 8670 ft 304 kts 330°
2026-05-07 21:08 40.89451 -8.54972 8297 ft 301 kts 330°
2026-05-07 21:09 40.91299 -8.56251 7927 ft 299 kts 330°
2026-05-07 21:09 40.93132 -8.57520 7565 ft 296 kts 330°
2026-05-07 21:09 40.94948 -8.58778 7210 ft 293 kts 329°
2026-05-07 21:09 40.96741 -8.60021 6954 ft 286 kts 329°
2026-05-07 21:10 40.98488 -8.61101 6798 ft 270 kts 339°
2026-05-07 21:10 40.99660 -8.61531 6701 ft 259 kts 347°
2026-05-07 21:10 41.01925 -8.62093 6507 ft 236 kts 346°
2026-05-07 21:10 41.03450 -8.62495 6448 ft 212 kts 346°
2026-05-07 21:11 41.05920 -8.63164 5832 ft 198 kts 346°
2026-05-07 21:11 41.08434 -8.63840 5070 ft 171 kts 347°
2026-05-07 21:12 41.09589 -8.64146 4575 ft 167 kts 347°
2026-05-07 21:12 41.10717 -8.64445 4054 ft 164 kts 348°
2026-05-07 21:12 41.11823 -8.64735 3569 ft 160 kts 348°
2026-05-07 21:12 41.12887 -8.65013 3188 ft 152 kts 348°
2026-05-07 21:13 41.13883 -8.65273 2961 ft 139 kts 348°
2026-05-07 21:13 41.14823 -8.65518 2598 ft 138 kts 348°
2026-05-07 21:13 41.15771 -8.65765 2228 ft 139 kts 349°
2026-05-07 21:13 41.16722 -8.66012 1879 ft 138 kts 348°
2026-05-07 21:14 41.17640 -8.66252 1611 ft 132 kts 348°
2026-05-07 21:14 41.18526 -8.66483 1313 ft 131 kts 348°
2026-05-07 21:14 41.19410 -8.66714 1041 ft 126 kts 349°
2026-05-07 21:14 41.20288 -8.66943 880 ft 132 kts 348°
2026-05-07 21:15 41.21168 -8.67173 679 ft 128 kts 348°
2026-05-07 21:15 41.22037 -8.67408 525 ft 127 kts 348°
2026-05-07 21:15 41.22906 -8.67629 381 ft 127 kts 348°
2026-05-07 21:15 41.23769 -8.67853 233 ft 123 kts 348°
2026-05-07 21:16 41.24475 -8.68040 207 ft 76 kts 348°
2026-05-07 21:16 41.24854 -8.68139 200 ft 48 kts 349°
2026-05-07 21:16 41.25111 -8.68172 181 ft 23 kts
2026-05-07 21:16 41.25264 -8.68115 177 ft 22 kts 19°
2026-05-07 21:17 41.25417 -8.68056 172 ft 21 kts 352°
2026-05-07 21:17 41.25570 -8.68100 165 ft 19 kts 345°
2026-05-07 21:17 41.25607 -8.68202 168 ft 7 kts 261°
2026-05-07 21:17 41.25595 -8.68279 168 ft 11 kts 253°
2026-05-07 21:18 41.25521 -8.68312 169 ft 15 kts 170°
2026-05-07 21:18 41.25314 -8.68259 175 ft 46 kts 169°
2026-05-07 21:18 41.25023 -8.68183 183 ft 35 kts 170°
2026-05-07 21:18 41.24795 -8.68186 195 ft 32 kts 192°
2026-05-07 21:19 41.24588 -8.68270 207 ft 26 kts 197°
2026-05-07 21:19 41.24417 -8.68267 213 ft 24 kts 168°
2026-05-07 21:19 41.24251 -8.68225 216 ft 24 kts 168°
2026-05-07 21:19 41.24084 -8.68179 221 ft 25 kts 169°
2026-05-07 21:20 41.23914 -8.68134 223 ft 26 kts 168°
2026-05-07 21:20 41.23772 -8.68098 226 ft 17 kts 168°
2026-05-07 21:20 41.23721 -8.67996 226 ft 10 kts 90°
2026-05-07 21:20 41.23723 -8.67968 225 ft 0 kts 87°
2026-05-07 21:22 41.23723 -8.67967 225 ft 2 kts 87°
2026-05-07 21:23 41.23724 -8.67912 224 ft 11 kts 88°
2026-05-07 21:23 41.23671 -8.67827 229 ft 16 kts 165°
2026-05-07 21:23 41.23592 -8.67735 230 ft 17 kts 88°
2026-05-07 21:23 41.23612 -8.67599 234 ft 12 kts 79°
2026-05-07 21:24 41.23631 -8.67484 236 ft 14 kts 69°
2026-05-07 21:24 41.23706 -8.67426 236 ft 8 kts 34°
2026-05-07 21:24 41.23742 -8.67347 236 ft 12 kts 58°
2026-05-07 21:24 41.23776 -8.67295 237 ft 0 kts 49°